Tracking 19832 objects as of 24-Aug-2019
HD Live streaming from Space Station
objects crossing your sky now

DIADEME 2

Track DIADEME 2 now!
10-day predictions
DIADEME 2 is classified as:


NORAD ID: 2680
Int'l Code: 1967-014A
Perigee: 584.0 km
Apogee: 1,663.5 km
Inclination: 39.4 °
Period: 107.6 minutes
Semi major axis: 7494 km
RCS: 0.6374 m2 (medium)
Launch date: February 15, 1967
Source: France (FR)
Launch site: HAMMA GUIRA SPACE TRACK RANGE (HGSTR)
aabbcc
Your satellite tracking list
Your tracking list is empty




NASA's NSSDC Master Catalog

Two Line Element Set (TLE):
1  2680U 67014A   19235.72128075 +.00000084 +00000-0 +62300-4 0  9993
2  2680 039.4466 337.5187 0720170 292.9868 059.6480 13.38039337542154
Source of the keplerian elements: AFSPC